Regional Weather Roundup
Issued by NWS

Home | Current Version | Previous Version | Graphics & Text | Print | Product List | Glossary Off
Versions: 1 2 3 4 5 6 7 8 9 10 11 12 13 14 15 16 17 18 19 20 21 22 23 24 25 26 27 28 29 30 31 32 33 34 35 36 37 38 39 40 41 42 43 44 45 46 47 48 49 50

000
ASUS43 KTOP 192159
RWRKS

WEATHER ROUNDUP FOR KANSAS
NATIONAL WEATHER SERVICE GOODLAND KS
400 PM CST SUN FEB 19 2017

NOTE:  "FAIR" INDICATES FEW OR NO CLOUDS BELOW 12,000 FEET WITH NO
SIGNIFICANT WEATHER AND/OR OBSTRUCTIONS TO VISIBILITY.

KSZ001>006-013>018-027>032-041>047-192300-
NORTHWEST KANSAS

CITY           SKY/WX    TMP DP  RH WIND       PRES   REMARKS
GOODLAND       SUNNY     67  42  40 S22G30    29.66S
HAYS           SUNNY     71  50  47 S21G26    29.74R
HILL CITY      MOSUNNY   75  47  36 S21G32    29.69F
RUSSELL        SUNNY     70  50  49 S20G30    29.75R
$$

KSZ061>065-074>080-084>089-192300-
SOUTHWEST KANSAS

CITY           SKY/WX    TMP DP  RH WIND       PRES   REMARKS
DODGE CITY     SUNNY     72  50  45 S25G31    29.72F
ELKHART          N/A     62  38  41 S16         N/A
GARDEN CITY    SUNNY     73  47  39 S25G35    29.70F
GREAT BEND     SUNNY     67  52  58 S26       29.77S
LIBERAL        SUNNY     72  46  40 S18G24    29.74S
$$

KSZ066>073-081>083-090>101-192300-
SOUTHEAST KANSAS

CITY           SKY/WX    TMP DP  RH WIND       PRES   REMARKS
CHANUTE        SUNNY     72  56  57 S13       29.89F
COFFEYVILLE    SUNNY     72  58  61 S9        29.89F
HUTCHINSON     CLOUDY    61  54  77 S15G24    29.83R
MEDICINE LODGE   N/A     63  54  72 S16G24    29.80F
NEWTON         PTSUNNY   61  54  77 S20       29.86S
PARSONS        SUNNY     72  57  59 S9        29.90F
WICHITA INTL   CLOUDY    62  55  77 S13       29.85S
WICHITA JABRA  CLOUDY    62  55  77 S16       29.86S
WINFIELD       SUNNY     69  56  62 S10       29.86F
$$

KSZ007>012-019>026-033>040-048>060-102>105-192300-
NORTHEAST KANSAS

CITY           SKY/WX    TMP DP  RH WIND       PRES   REMARKS
CONCORDIA      CLOUDY    62  52  69 S22       29.80F
EMPORIA        PTSUNNY   62  54  74 S10       29.88F
LAWRENCE       SUNNY     72  57  59 S8        29.88S
MANHATTAN      MOSUNNY   65  53  65 SE15      29.85F
OLATHE IND     SUNNY     74  56  53 S14       29.89S
OLATHE EXE     SUNNY     73  56  54 S15       29.88F
SALINA         SUNNY     68  53  58 S18G24    29.81F
TOPEKA BILLARD MOSUNNY   63  55  75 S13       29.88S
TOPEKA FORBES  PTSUNNY   65  55  70 S13       29.88S
$$



USA.gov is the U.S. government's official web portal to all federal, state and local government web resources and services.